Helicity
231 194 222 287 291 228 172 177 122 101 63 59 81 86 51 25 -16 -19 3 26 35 17 25 2 32 48 42 10 -18 19 28 34 40
152 124 213 251 298 256 180 189 135 104 90 50 62 77 72 39 51 15 10 20 12 -24 -7 3 13 43 26 1 8 6 13 25 35
50 144 232 231 244 226 240 194 184 129 113 82 75 63 74 66 76 69 59 15 -5 7 17 37 23 48 39 2 -9 -8 -2 8 30
80 119 225 233 211 251 291 224 237 189 139 120 103 78 70 88 120 92 70 27 -2 7 19 27 -8 23 40 19 9 4 9 -3 -15
99 197 170 249 214 264 343 296 277 241 159 136 118 98 101 92 115 120 104 54 16 6 13 12 23 5 10 31 22 12 9 7 9
-32 97 150 88 216 227 262 307 299 278 217 139 123 103 104 76 67 131 104 68 54 43 5 6 32 29 11 11 10 25 24 15 4
126 66 149 134 160 161 226 266 308 276 314 314 287 204 96 62 43 75 50 36 61 68 28 14 26 30 28 58 61 66 47 39 20
52 125 107 198 215 283 334 245 298 302 336 339 242 231 120 45 -3 67 61 56 64 54 65 36 45 67 86 85 84 75 57 50 42
44 135 159 15 245 236 285 317 265 260 248 294 304 40 72 63 42 84 105 171 125 138 93 15 71 85 107 104 77 62 47 64 57
16 -53 51 61 89 167 209 275 318 205 215 261 192 212 -5 100 137 100 67 132 167 161 171 167 70 123 127 111 99 110 90 79 63
127 -21 -30 75 90 165 188 121 64 141 132 153 170 69 88 115 106 87 100 104 136 170 180 184 118 97 132 78 85 98 91 99 97
119 130 46 37 71 89 96 139 43 31 65 84 95 51 48 73 134 168 148 123 121 166 225 227 207 142 115 114 104 141 143 108 130
60 64 78 79 110 97 92 180 127 168 93 71 127 109 121 185 211 192 159 117 127 139 147 178 209 206 181 140 175 255 195 127 144
72 64 66 66 69 97 101 182 205 209 183 202 176 135 117 166 197 176 113 109 110 133 164 173 191 202 186 187 172 188 172 133 94
31 42 77 119 118 121 153 185 166 180 225 194 229 210 220 238 168 140 114 137 126 131 147 161 151 136 149 141 145 164 176 154 102
41 17 112 116 151 161 175 212 202 203 180 191 228 343 297 329 332 307 290 194 145 143 123 107 130 134 144 137 123 138 189 214 146
70 92 91 92 130 146 152 153 178 191 189 174 199 239 266 220 231 294 363 352 291 219 202 154 130 139 137 109 76 106 109 77 113
91 97 107 84 104 96 87 76 95 112 121 114 152 173 194 193 165 187 218 256 276 235 214 190 180 123 121 103 88 81 88 93 97
98 93 44 38 49 60 83 104 110 111 84 74 89 97 87 65 82 83 110 122 129 192 188 255 221 122 151 132 109 110 123 137 120
26 46 60 92 89 65 73 66 95 106 107 97 112 123 128 100 95 91 88 124 140 128 153 177 203 179 135 113 108 97 95 77 93
Wind_Speed
60 55 49 36 28 25 25 21 23 22 25 27 20 18 21 29 53 45 35 36 30 27 38 39 36 31 21 45 19 37 38 36 33
63 69 49 40 35 26 27 22 21 20 18 23 18 19 21 27 5 45 48 38 37 41 34 29 14 26 11 45 46 17 18 36 37
89 71 58 51 35 30 28 26 23 21 17 16 15 13 15 24 19 6 13 20 43 35 24 11 20 34 39 48 45 36 16 14 25
51 55 60 51 48 35 33 30 29 23 21 17 12 11 10 9 7 8 5 16 21 25 23 21 51 39 40 47 43 15 14 16 14
30 31 40 44 55 38 31 31 31 30 25 23 20 16 13 13 11 10 8 10 16 9 16 17 11 46 53 42 49 13 11 12 13
43 23 19 34 37 33 30 29 36 34 26 21 20 16 18 14 13 12 11 11 9 4 7 6 24 17 13 29 28 34 29 23 19
48 58 63 53 47 50 45 39 30 29 25 27 26 26 33 18 15 15 11 8 8 6 3 2 24 25 20 29 27 33 38 36 25
29 36 54 25 25 39 37 45 36 27 24 24 20 28 40 36 20 22 33 29 40 37 15 12 19 27 30 30 29 35 35 37 31
29 33 39 34 15 25 29 28 27 26 25 18 19 32 51 55 33 30 27 23 34 31 48 28 34 27 26 32 34 37 35 37 36
38 42 52 38 38 45 48 43 33 27 29 28 23 15 24 44 38 51 42 28 32 14 28 35 27 21 25 34 37 42 44 41 39
28 24 29 30 37 44 49 59 67 57 39 30 18 19 19 26 46 48 43 44 37 35 33 34 43 34 29 28 43 40 41 39 33
32 27 26 23 19 26 36 42 54 48 39 34 23 17 17 20 43 30 30 44 46 42 35 27 27 27 23 28 38 39 37 29 26
33 33 32 29 30 29 33 38 36 33 36 34 24 29 21 32 30 37 34 27 26 28 23 19 18 23 28 32 40 44 37 25 26
34 33 32 33 32 31 31 28 24 27 36 43 44 36 25 21 17 18 17 23 24 20 18 18 18 21 26 32 34 38 36 27 22
37 38 37 34 31 31 29 27 24 23 26 27 23 28 25 16 11 16 15 15 16 13 14 17 19 22 25 28 30 31 33 31 26
38 34 35 32 30 31 31 28 27 25 26 25 22 20 21 21 17 20 23 17 15 14 15 17 21 23 25 26 28 29 30 29 25
36 33 32 32 29 29 29 28 27 25 26 25 22 20 20 20 20 22 25 26 24 25 30 32 28 28 28 25 25 26 27 25 25
28 27 25 27 27 28 27 27 26 26 25 25 23 22 22 21 21 21 22 26 30 32 32 32 34 28 23 22 26 25 24 26 30
24 24 22 22 24 24 27 29 30 29 28 26 24 23 23 25 24 26 25 28 28 32 33 34 31 31 23 26 26 25 30 35 38
20 19 22 24 25 26 29 29 30 30 30 28 29 30 30 30 29 28 31 34 37 38 37 36 38 37 34 32 31 33 38 42 45
Wind_Direction
229 232 232 226 221 207 189 175 162 149 147 148 147 152 145 147 189 182 160 159 142 140 168 174 269 282 321 208 92 267 262 271 278
226 232 233 230 231 223 217 213 190 172 161 151 152 156 153 152 312 238 220 157 167 181 161 150 4 297 8 235 218 319 332 269 269
227 234 236 239 227 225 212 206 200 202 186 174 163 169 165 155 148 314 306 134 182 170 147 84 309 278 269 228 202 168 82 42 313
237 237 234 237 238 228 226 201 215 211 213 212 215 206 209 207 219 161 141 141 146 151 143 137 214 269 262 240 232 89 25 85 56
249 242 229 227 238 236 219 221 206 196 203 200 207 204 194 209 215 216 206 166 152 122 130 117 2 253 228 266 242 354 87 83 31
244 258 208 192 228 221 191 224 227 228 204 227 235 235 247 220 233 234 202 189 176 299 328 350 305 317 323 299 309 301 307 323 343
252 224 179 172 176 176 176 174 215 214 222 240 249 262 263 245 222 241 216 223 266 278 239 228 298 300 308 300 304 301 295 297 325
297 257 238 166 176 183 186 176 176 211 200 180 212 263 264 266 210 258 262 274 274 286 281 282 294 294 295 301 306 299 300 299 315
317 312 292 278 239 235 205 197 193 209 201 219 241 186 259 254 262 263 266 272 276 305 280 286 286 293 298 296 299 300 305 304 305
306 318 306 281 267 254 249 247 244 230 245 260 263 242 226 248 260 260 273 272 281 300 300 282 292 299 307 300 297 296 296 300 301
327 322 255 266 283 264 258 252 247 256 261 260 262 197 194 254 263 266 273 274 287 296 292 282 277 292 298 305 293 297 301 303 307
324 333 359 6 347 317 290 273 258 262 260 261 242 219 248 263 259 268 280 280 288 291 291 289 283 292 300 296 293 304 314 315 317
330 352 343 338 322 340 325 289 283 268 265 261 248 250 260 263 265 269 282 294 304 306 310 307 300 294 295 298 303 307 310 314 307
321 331 339 332 347 339 332 327 316 318 278 275 269 265 266 256 268 280 293 289 295 311 320 324 318 308 307 309 314 312 316 316 313
315 315 321 325 329 338 338 326 335 340 326 339 336 300 314 346 329 298 301 314 320 340 336 326 321 320 319 318 320 322 318 318 316
308 320 321 322 324 327 342 336 334 325 333 340 344 334 333 327 322 307 302 315 328 334 322 320 315 318 319 321 326 326 327 327 324
312 323 322 312 323 322 320 325 334 337 336 337 336 333 336 336 333 328 320 309 308 301 298 297 300 303 307 317 323 323 325 325 324
313 325 334 322 319 314 315 316 329 331 330 333 337 337 333 335 337 332 326 319 311 306 306 303 299 304 311 313 315 321 326 318 313
314 323 341 344 351 323 314 310 314 322 325 327 327 326 319 320 321 317 314 312 310 314 313 313 311 311 310 313 318 318 314 312 311
353 350 342 337 344 339 320 315 315 318 320 323 320 312 314 316 313 313 312 306 302 299 304 307 304 304 308 309 306 307 305 305 305